| time (UTC) | temp F | wind direction | speed knots | gust knots | rain 1hr in | rain 24hr in | rain mn in | humidity % | barometer mb |
| 20260505124608 | 48 | 295 | 1.7 | 4.3 | 0.00 | 0.00 | 0.00 | 45 | 1007.4 |
| 20260505123105 | 47 | 259 | 1.7 | 6.1 | 0.00 | 0.00 | 0.00 | 46 | 1008.0 |
| 20260505121623 | 46 | 0 | 0.0 | 2.6 | 0.00 | 0.00 | 0.00 | 53 | 1007.2 |
| 20260505120054 | 45 | 261 | 0.9 | 4.3 | 0.00 | 0.00 | 0.00 | 54 | 1008.1 |
| 20260505114555 | 44 | 256 | 0.0 | 1.7 | 0.00 | 0.00 | 0.00 | 57 | 1006.9 |
| 20260505113105 | 44 | 0 | 0.0 | 0.0 | 0.00 | 0.00 | 0.00 | 59 | 1006.1 |
| 20260505111556 | 44 | 0 | 0.0 | 1.7 | 0.00 | 0.00 | 0.00 | 56 | 1006.0 |
| 20260505101559 | 45 | 339 | 0.0 | 1.7 | 0.00 | 0.00 | 0.00 | 53 | 1005.7 |
| 20260505100136 | 46 | 302 | 0.0 | 4.3 | 0.00 | 0.00 | 0.00 | 52 | 1005.9 |
| 20260505094555 | 46 | 0 | 0.9 | 3.5 | 0.00 | 0.00 | 0.00 | 51 | 1005.4 |
| 20260505093054 | 46 | 0 | 0.0 | 2.6 | 0.00 | 0.00 | 0.00 | 51 | 1005.7 |
| 20260505091616 | 46 | 0 | 0.0 | 1.7 | 0.00 | 0.00 | 0.00 | 52 | 1005.9 |
| 20260505084552 | 47 | 0 | 0.0 | 1.7 | 0.00 | 0.00 | 0.00 | 52 | 1004.8 |
| 20260505083053 | 47 | 235 | 0.0 | 2.6 | 0.00 | 0.00 | 0.00 | 51 | 1004.5 |
| 20260505081551 | 48 | 284 | 0.9 | 4.3 | 0.00 | 0.00 | 0.00 | 48 | 1004.1 |
| 20260505080056 | 49 | 77 | 2.6 | 10.4 | 0.00 | 0.00 | 0.00 | 48 | 1003.9 |
| 20260505074555 | 49 | 0 | 0.0 | 2.6 | 0.00 | 0.00 | 0.00 | 52 | 1003.5 |
| 20260505073100 | 50 | 301 | 0.9 | 6.1 | 0.00 | 0.00 | 0.00 | 50 | 1003.1 |
| 20260505071553 | 50 | 108 | 0.9 | 3.5 | 0.00 | 0.00 | 0.00 | 49 | 1002.9 |
| 20260505070052 | 51 | 290 | 0.0 | 6.1 | 0.00 | 0.00 | 0.00 | 47 | 1002.8 |
| 20260505064602 | 52 | 259 | 0.9 | 4.3 | 0.00 | 0.00 | 0.00 | 48 | 1002.7 |
| 20260505063053 | 53 | 297 | 0.9 | 4.3 | 0.00 | 0.00 | 0.00 | 48 | 1002.1 |
| 20260505061552 | 54 | 274 | 1.7 | 7.0 | 0.00 | 0.00 | 0.00 | 46 | 1002.0 |
| 20260505060055 | 55 | 215 | 0.9 | 4.3 | 0.00 | 0.00 | 0.00 | 45 | 1001.9 |
| 20260505054618 | 55 | 338 | 0.9 | 3.5 | 0.00 | 0.00 | 0.00 | 43 | 1001.9 |
| 20260505053056 | 56 | 281 | 2.6 | 7.8 | 0.00 | 0.00 | 0.00 | 42 | 1001.6 |
| 20260505051552 | 57 | 273 | 2.6 | 6.1 | 0.00 | 0.00 | 0.00 | 40 | 1001.3 |
| 20260505041605 | 60 | 293 | 3.5 | 7.8 | 0.00 | 0.00 | 0.00 | 35 | 1000.2 |
| 20260505040058 | 61 | 278 | 2.6 | 5.2 | 0.00 | 0.00 | 0.00 | 38 | 1000.0 |
| 20260505034554 | 61 | 273 | 1.7 | 5.2 | 0.00 | 0.00 | 0.00 | 39 | 999.9 |
| 20260505033056 | 62 | 287 | 0.9 | 4.3 | 0.00 | 0.00 | 0.00 | 38 | 1000.1 |
| 20260505031554 | 62 | 268 | 1.7 | 3.5 | 0.00 | 0.00 | 0.00 | 37 | 1000.0 |
| 20260505030107 | 63 | 281 | 1.7 | 4.3 | 0.00 | 0.00 | 0.00 | 36 | 999.6 |
| 20260505024603 | 63 | 308 | 3.5 | 8.7 | 0.00 | 0.00 | 0.00 | 34 | 999.4 |
| 20260505023059 | 64 | 266 | 3.5 | 7.8 | 0.00 | 0.00 | 0.00 | 34 | 999.1 |
| 20260505021601 | 65 | 231 | 4.3 | 11.3 | 0.00 | 0.00 | 0.00 | 35 | 998.8 |
| 20260505020105 | 67 | 290 | 4.3 | 8.7 | 0.00 | 0.00 | 0.00 | 35 | 998.3 |
| 20260505014556 | 68 | 285 | 3.5 | 7.0 | 0.00 | 0.00 | 0.00 | 35 | 997.9 |
| 20260505013059 | 68 | 266 | 3.5 | 6.1 | 0.00 | 0.00 | 0.00 | 39 | 997.4 |
| 20260505011552 | 69 | 278 | 1.7 | 7.0 | 0.00 | 0.00 | 0.00 | 38 | 996.5 |
| 20260505010111 | 70 | 255 | 2.6 | 7.0 | 0.00 | 0.00 | 0.00 | 38 | 996.0 |
| 20260505004555 | 72 | 229 | 2.6 | 10.4 | 0.00 | 0.00 | 0.00 | 37 | 995.8 |
| 20260505003124 | 74 | 276 | 1.7 | 3.5 | 0.00 | 0.00 | 0.00 | 35 | 995.3 |
| 20260505001558 | 74 | 248 | 2.6 | 5.2 | 0.00 | 0.00 | 0.00 | 34 | 994.7 |
| 20260505000059 | 75 | 225 | 3.5 | 6.1 | 0.00 | 0.00 | 0.00 | 33 | 994.8 |
| 20260504234555 | 75 | 258 | 2.6 | 7.0 | 0.00 | 0.00 | 0.00 | 32 | 994.8 |
| 20260504233057 | 75 | 280 | 4.3 | 8.7 | 0.00 | 0.00 | 0.00 | 31 | 995.0 |
| 20260504231552 | 75 | 303 | 4.3 | 10.4 | 0.00 | 0.00 | 0.00 | 31 | 995.4 |
| 20260504230113 | 75 | 269 | 8.7 | 19.1 | 0.00 | 0.00 | 0.00 | 29 | 995.5 |
| 20260504224612 | 76 | 291 | 5.2 | 12.2 | 0.00 | 0.00 | 0.00 | 30 | 995.4 |
| 20260504223053 | 79 | 271 | 7.8 | 15.6 | 0.00 | 0.00 | 0.00 | 29 | 995.4 |
| 20260504221553 | 79 | 245 | 8.7 | 16.5 | 0.00 | 0.00 | 0.00 | 28 | 995.2 |
| 20260504220057 | 79 | 240 | 8.7 | 14.8 | 0.00 | 0.00 | 0.00 | 28 | 995.5 |
| 20260504214551 | 78 | 231 | 7.0 | 18.2 | 0.00 | 0.00 | 0.00 | 28 | 995.7 |
| 20260504213056 | 78 | 221 | 7.8 | 14.8 | 0.00 | 0.00 | 0.00 | 27 | 995.7 |
| 20260504211558 | 79 | 295 | 6.1 | 18.2 | 0.00 | 0.00 | 0.00 | 27 | 995.8 |
| 20260504210101 | 79 | 263 | 9.6 | 17.4 | 0.00 | 0.00 | 0.00 | 26 | 995.9 |
| 20260504204556 | 79 | 297 | 9.6 | 19.1 | 0.00 | 0.00 | 0.00 | 27 | 996.1 |
| 20260504203057 | 78 | 211 | 7.8 | 20.0 | 0.00 | 0.00 | 0.00 | 27 | 996.2 |
| 20260504201604 | 78 | 210 | 8.7 | 16.5 | 0.00 | 0.00 | 0.00 | 27 | 996.4 |
| 20260504194555 | 78 | 260 | 7.8 | 16.5 | 0.00 | 0.00 | 0.00 | 26 | 996.8 |
| 20260504193052 | 78 | 243 | 8.7 | 16.5 | 0.00 | 0.00 | 0.00 | 25 | 996.7 |
| 20260504191606 | 78 | 193 | 9.6 | 17.4 | 0.00 | 0.00 | 0.00 | 26 | 996.9 |
| 20260504190052 | 77 | 210 | 8.7 | 15.6 | 0.00 | 0.00 | 0.00 | 26 | 997.0 |
| 20260504184551 | 77 | 245 | 7.8 | 20.9 | 0.00 | 0.00 | 0.00 | 27 | 996.9 |
| 20260504183053 | 76 | 245 | 11.3 | 17.4 | 0.00 | 0.00 | 0.00 | 27 | 997.1 |
| 20260504181559 | 76 | 260 | 10.4 | 20.0 | 0.00 | 0.00 | 0.00 | 26 | 997.4 |
| 20260504180052 | 75 | 162 | 7.8 | 19.1 | 0.00 | 0.00 | 0.00 | 27 | 997.3 |
| 20260504174558 | 75 | 249 | 7.0 | 19.1 | 0.00 | 0.00 | 0.00 | 27 | 997.6 |
| 20260504173058 | 75 | 266 | 8.7 | 14.8 | 0.00 | 0.00 | 0.00 | 27 | 997.7 |
| 20260504171555 | 74 | 245 | 10.4 | 19.1 | 0.00 | 0.00 | 0.00 | 28 | 998.2 |